Regional Weather Roundup
Issued by NWS

Home | Current Version | Previous Version | Text Only | Print | Product List | Glossary On
Versions: 1 2 3 4 5 6 7 8 9 10 11 12 13 14 15 16 17 18 19 20 21 22 23 24 25 26 27 28 29 30 31 32 33 34 35 36 37 38 39 40 41 42 43 44 45 46 47 48 49 50
691
ASUS46 KSEW 251410
RWRWA

WASHINGTON REGIONAL WEATHER ROUNDUP
NATIONAL WEATHER SERVICE SEATTLE WA
700 AM PDT MON JUL 25 2016

NOTE:"FAIR" INDICATES FEW OR NO CLOUDS BELOW 12,000 FEET WITH NO
SIGNIFICANT WEATHER AND/OR OBSTRUCTIONS TO VISIBILITY.

WAZ505-507>509-251500-
SEATTLE, TACOMA, EVERETT, AND VICINITY

CITY           SKY/WX    TMP DP  RH WIND       PRES   REMARKS
EVERETT        SUNNY     63  54  72 CALM      30.08R
BOEING FIELD   MOSUNNY   64  56  75 CALM      30.07R
RENTON         MOSUNNY   61  56  83 SE3       30.07R
SEATAC AIRPORT MOSUNNY   65  57  75 SE3       30.08R
JBLM-MCCHORD   MOSUNNY   57  57  99 S2        30.08R
PUYALLUP         N/A     57  57 100 CALM      30.08S
BREMERTON      SUNNY     57  54  88 CALM      30.11R
JBLM-FT LEWIS  MOSUNNY   57  55  94 SE2       30.08R
TACOMA NARROWS MOSUNNY   60  54  80 CALM      30.09R
$$

WAZ001-503-506-510-514-515-251500-
NORTH INTERIOR

CITY           SKY/WX    TMP DP  RH WIND       PRES   REMARKS
BELLINGHAM     SUNNY     61  57  87 S9        30.05R
FRIDAY HARBOR  MOSUNNY   56  53  90 CALM      30.06R
EASTSOUND      MOSUNNY   59  55  88 CALM      30.03R
PORT ANGELES   PTSUNNY   56  55  97 CALM      30.07R
EDIZ HOOK      FOG       55  54  97 W7        30.07R VSB 1
PORT TOWNSEND  FAIR      55  54  94 CALM      30.07R
NAS WHIDBEY    PTSUNNY   59  54  83 SW5       30.10R
ARLINGTON      SUNNY     55  48  76 CALM      30.09R
BURLINGTON     SUNNY     57  55  94 SE3       30.06S
$$

WAZ020-022-039-040-504-511-512-251500-
SOUTHWEST INTERIOR

CITY           SKY/WX    TMP DP  RH WIND       PRES   REMARKS
SHELTON        CLOUDY    58  55  90 W8        30.07R FOG
OLYMPIA        SUNNY     55  53  93 CALM      30.08R
CHEHALIS       FAIR      57  57 100 CALM      30.08R
KELSO          CLOUDY    62  57  83 N5        30.09R HAZE
VANCOUVER      SUNNY     62  56  80 NW5       30.07R
SCAPPOOSE, OR  SUNNY     61  55  81 N6        30.06R
PORTLAND, OR   MOSUNNY   62  56  80 NW5       30.07R
$$

WAZ021-516-517-251500-
WASHINGTON COAST

CITY           SKY/WX    TMP DP  RH WIND       PRES   REMARKS
FORKS          LGT RAIN  59  59 100 W3        30.09R FOG
HOQUIAM        CLOUDY    59  59 100 VRB5      30.09R FOG
ASTORIA, OR    LGT RAIN  61  58  90 NW8       30.10R FOG
$$

WAZ019-023-024-040-518-519-251500-
CASCADE MOUNTAINS AND COLUMBIA GORGE

CITY           SKY/WX    TMP DP  RH WIND       PRES   REMARKS
STAMPEDE PASS  SUNNY     56  50  80 SW6       30.15R
TROUTDALE, OR  SUNNY     63  58  83 W3        30.06R
THE DALLES, OR SUNNY     68  54  60 VRB3      29.97R
$$

WAZ026-027-041>044-520-521-251500-
EAST SLOPES

CITY           SKY/WX    TMP DP  RH WIND       PRES   REMARKS
OMAK           SUNNY     66  51  58 CALM      30.02R
WENATCHEE      SUNNY     70  54  56 W8        30.00R
ELLENSBURG     SUNNY     62  53  72 E3        30.03S
YAKIMA         SUNNY     68  53  58 W8        30.00R
$$

WAZ028-034-035-251500-
COLUMBIA BASIN

CITY           SKY/WX    TMP DP  RH WIND       PRES   REMARKS
EPHRATA        SUNNY     68  52  56 NE3       29.98R
MOSES LAKE     SUNNY     63  47  55 N5        30.00R
PASCO          SUNNY     61  53  75 CALM      29.97R
HERMISTON, OR  SUNNY     65  48  54 CALM      29.97R
$$

WAZ036>038-251500-
NORTHEAST WASHINGTON

CITY           SKY/WX    TMP DP  RH WIND       PRES   REMARKS
SPOKANE GEIGER SUNNY     65  51  60 NE7       30.05S
SPOKANE FELTS  SUNNY     62  54  74 E3        30.06R
FAIRCHILD AFB  SUNNY     63  52  67 E5        30.06R
COEURDALENE,ID SUNNY     63  54  72 NE6       30.05R
DEER PARK      SUNNY     60  53  77 CALM      30.06R
$$

WAZ029>033-251500-
SOUTHEAST WASHINGTON

CITY           SKY/WX    TMP DP  RH WIND       PRES   REMARKS
PULLMAN        SUNNY     62  49  62 CALM      30.07R
LEWISTON, ID   SUNNY     67  49  52 E6        30.02R
WALLA WALLA    SUNNY     71  48  43 E5        29.98R
PENDLETON, OR  SUNNY     64  46  52 SE5       30.00R
$$




USA.gov is the U.S. government's official web portal to all federal, state and local government web resources and services.